Wind_Speed
14 15 16 18 18 18 19 19 20 20 21 22 23 23 23 23 24 25 25 25 24 25 25 26 27 27 27 27 28 29 29 30 31 31 32 33 34 34
14 14 15 17 17 18 19 19 19 20 21 21 22 23 22 23 24 24 24 25 25 25 25 26 26 27 28 30 31 30 31 31 32 33 34 35 35 36
14 14 15 16 17 17 18 19 19 19 20 21 21 21 21 22 23 24 24 24 25 25 25 25 26 27 29 29 31 31 32 33 33 34 35 36 36 37
12 13 14 15 15 16 17 18 18 18 19 20 20 21 22 23 23 23 23 24 25 25 25 26 27 28 30 31 32 33 33 34 35 36 36 37 37 38
11 12 12 13 14 15 16 16 17 18 19 20 20 21 22 22 22 22 24 25 26 27 28 29 30 30 31 32 32 34 35 36 36 37 38 38 39 40
11 12 13 14 15 16 17 17 18 19 19 20 20 21 22 23 23 24 25 26 27 28 29 30 30 31 31 32 33 34 35 37 38 38 39 40 40 41
13 13 14 15 16 17 17 18 19 20 20 21 21 22 23 23 24 25 26 26 28 29 30 31 32 32 33 34 35 36 37 38 39 39 39 39 39 40
13 14 14 15 16 16 17 18 19 19 20 21 22 22 23 25 26 26 26 27 29 30 31 32 33 33 34 36 37 38 38 38 39 39 39 39 39 39
13 14 15 16 16 17 17 17 18 18 19 20 22 23 24 26 27 28 28 28 29 30 31 32 33 34 35 36 37 37 38 38 38 38 39 39 40 40
14 15 16 16 16 16 17 18 19 20 21 22 23 24 25 26 27 27 28 29 30 31 33 33 34 35 36 36 37 37 37 37 38 39 39 40 40 40
15 15 16 17 17 17 19 19 20 21 22 23 24 25 26 26 27 27 28 30 31 32 33 33 33 34 35 36 37 37 38 38 38 38 39 39 40 40
16 16 17 17 18 19 20 21 23 24 25 25 26 26 27 27 28 28 29 30 31 32 32 32 33 34 35 35 36 36 36 36 37 37 37 37 37 38
17 18 19 19 20 21 22 23 25 26 26 27 27 27 27 28 28 29 30 31 32 32 32 33 33 34 34 35 36 36 37 36 37 37 37 37 38 38
19 20 20 21 22 23 24 26 27 27 27 28 28 28 29 29 30 31 32 32 33 33 34 35 35 35 35 36 36 36 37 37 37 37 37 38 38 38
21 22 22 23 24 26 27 27 28 28 28 29 29 30 31 32 33 33 33 34 34 35 35 35 36 36 36 37 37 36 37 37 36 37 37 37 37 38
23 24 24 25 26 27 28 28 28 29 30 30 31 32 33 33 34 34 35 35 35 36 36 36 36 36 36 36 36 36 36 36 36 36 36 36 36 36
24 25 25 26 27 28 28 29 30 30 31 32 32 33 33 34 34 34 35 35 35 35 35 35 35 35 35 35 35 35 35 35 35 36 35 34 34 34
25 26 27 27 28 29 30 31 31 32 32 32 33 33 34 34 34 34 35 35 34 34 34 34 34 34 34 34 34 33 33 33 33 33 33 33 33 32
27 28 28 29 30 30 31 31 32 32 32 33 34 34 34 34 34 34 34 34 34 33 33 33 32 32 32 32 32 32 31 31 30 30 30 30 30 30
28 28 29 30 31 31 31 32 32 32 33 34 34 34 34 34 33 33 33 33 32 32 32 32 31 31 31 31 30 29 29 29 28 28 28 27 27 27
29 29 29 30 31 32 32 32 33 33 34 34 33 33 33 33 33 32 32 32 32 31 31 30 30 30 30 29 28 27 27 27 26 26 25 25 25 25
29 30 30 31 32 32 33 33 33 33 33 33 32 32 32 32 32 32 32 31 31 30 30 30 29 29 28 27 26 26 26 25 25 24 24 23 23 22
30 31 32 33 33 32 32 32 33 33 33 32 32 32 32 32 32 31 31 30 30 29 29 29 28 28 27 26 25 25 24 24 23 23 22 22 22 21
Wind_Direction
271 272 269 269 273 275 275 275 272 273 273 273 275 275 275 276 275 273 272 273 272 274 275 276 274 273 272 271 271 271 272 274 273 272 272 273 271 270
276 273 273 274 277 278 277 279 280 275 274 276 276 278 279 279 277 277 275 273 274 276 278 277 277 277 275 275 275 274 273 274 274 274 274 273 273 272
282 279 276 277 278 280 281 281 280 279 279 279 280 280 282 282 282 281 279 277 275 276 277 277 277 277 278 279 278 276 276 275 275 276 275 275 275 275
284 282 279 280 280 280 282 282 281 281 282 282 282 282 282 282 281 282 279 279 278 278 277 278 279 279 280 279 278 277 277 277 277 276 275 276 276 275
291 289 286 285 284 285 285 285 284 283 283 282 283 283 283 284 283 282 282 283 280 278 279 280 279 279 280 280 280 278 278 278 278 278 276 275 275 275
296 293 291 288 286 287 287 286 286 286 287 286 286 285 285 285 285 285 285 282 281 281 282 281 279 280 279 279 280 281 281 281 280 279 279 278 276 275
297 293 292 290 288 287 287 286 288 289 288 289 287 286 286 286 287 288 287 285 283 283 284 283 281 280 280 280 280 281 281 282 282 281 281 281 279 277
300 298 295 293 293 292 291 290 291 292 291 291 290 289 290 290 290 290 289 288 287 286 285 284 283 282 282 281 282 282 282 282 282 281 281 280 280 279
305 302 301 299 297 296 295 296 296 296 296 295 293 293 292 291 291 291 290 290 289 289 288 288 286 285 284 284 284 284 283 282 282 281 280 280 279 279
306 303 302 301 299 298 298 298 299 300 298 297 297 296 296 296 295 294 293 293 292 290 290 289 288 287 286 286 285 285 285 284 283 283 282 281 280 279
306 306 308 305 303 303 300 299 302 303 302 302 302 302 301 300 298 297 297 296 294 294 293 291 290 289 288 287 286 286 285 284 284 284 283 282 281 279
306 306 307 306 305 303 303 303 303 304 304 304 303 303 301 300 299 298 299 298 298 297 296 294 293 291 290 289 288 287 286 286 285 285 284 283 282 281
305 304 305 305 305 305 306 306 305 305 305 304 303 303 303 302 301 301 300 299 298 298 297 296 296 295 294 293 292 290 290 288 286 285 285 285 284 284
305 305 305 306 306 307 307 307 306 306 305 305 304 303 303 303 303 302 301 300 299 298 298 297 297 296 296 295 293 292 291 290 289 288 286 285 285 285
306 306 306 307 307 307 307 307 307 306 306 305 304 303 303 303 303 303 301 300 300 299 298 297 297 297 297 296 295 293 292 290 290 290 288 287 287 287
306 307 307 307 307 308 307 307 307 307 306 305 305 305 305 305 304 303 303 302 301 300 300 299 299 298 298 298 296 294 293 291 291 291 290 289 288 287
307 307 306 307 308 308 308 307 307 308 307 306 305 306 306 306 306 305 304 304 304 303 302 302 301 300 299 298 297 296 294 293 292 292 292 291 290 290
308 307 307 307 308 309 309 309 309 309 308 307 307 308 308 307 307 307 307 307 306 306 305 304 303 302 301 300 299 298 296 295 294 293 293 293 292 293
307 308 308 308 308 308 309 309 310 309 310 309 309 309 308 308 308 308 309 309 308 308 308 307 306 305 304 304 303 301 300 298 296 295 294 294 294 294
307 307 307 308 308 309 309 310 309 310 310 310 310 310 310 310 310 310 311 311 311 310 310 309 309 308 308 307 305 304 303 302 300 299 298 297 297 297
306 306 307 308 309 309 310 309 309 310 311 311 312 312 312 312 312 312 312 312 312 312 311 311 310 309 309 308 307 306 306 305 304 303 302 300 300 300
306 307 307 308 309 309 309 309 309 310 311 311 312 313 313 313 313 312 312 312 312 312 312 311 311 311 310 309 309 308 308 307 306 306 305 304 303 303
306 306 307 308 309 310 310 310 311 311 311 311 312 312 313 314 314 313 313 312 311 311 311 311 311 311 310 310 310 311 310 310 309 308 308 307 306 305
Height
5871 5870 5870 5869 5869 5868 5868 5867 5866 5865 5864 5863 5862 5862 5860 5859 5858 5857 5856 5855 5854 5853 5851 5850 5849 5848 5847 5846 5845 5844 5843 5842 5841 5839 5838 5837 5836 5835
5867 5866 5865 5865 5864 5863 5863 5862 5860 5860 5859 5857 5856 5856 5854 5853 5852 5850 5849 5848 5847 5846 5845 5843 5842 5841 5840 5838 5837 5836 5835 5833 5832 5830 5829 5828 5827 5826
5863 5862 5861 5860 5859 5858 5857 5856 5855 5854 5853 5852 5851 5850 5848 5847 5846 5844 5843 5841 5840 5839 5837 5836 5835 5833 5832 5830 5828 5827 5826 5824 5823 5821 5820 5818 5817 5816
5858 5858 5856 5855 5854 5853 5852 5851 5850 5849 5848 5847 5845 5844 5842 5841 5839 5838 5836 5835 5833 5832 5830 5829 5827 5826 5824 5822 5820 5819 5817 5815 5813 5812 5810 5809 5807 5805
5855 5854 5853 5851 5850 5849 5848 5846 5845 5844 5843 5841 5840 5838 5836 5835 5833 5832 5830 5828 5826 5825 5823 5821 5819 5817 5816 5813 5811 5809 5807 5806 5804 5802 5800 5798 5796 5794
5852 5851 5849 5848 5846 5845 5843 5842 5840 5839 5837 5836 5834 5832 5831 5829 5827 5825 5823 5821 5819 5817 5815 5813 5811 5809 5807 5805 5803 5800 5798 5795 5793 5791 5789 5787 5784 5782
5849 5847 5845 5843 5842 5840 5839 5837 5836 5834 5832 5830 5828 5826 5824 5822 5820 5818 5816 5813 5811 5809 5807 5805 5802 5800 5798 5795 5793 5790 5788 5785 5783 5780 5778 5775 5773 5770
5845 5843 5841 5840 5838 5836 5834 5833 5831 5829 5827 5825 5822 5820 5818 5816 5813 5811 5808 5806 5803 5801 5798 5795 5793 5790 5788 5785 5783 5780 5777 5775 5772 5769 5766 5764 5761 5759
5842 5840 5838 5836 5834 5832 5830 5828 5826 5823 5822 5819 5817 5814 5811 5809 5806 5803 5800 5798 5795 5792 5789 5786 5783 5780 5777 5775 5772 5769 5766 5764 5761 5758 5755 5752 5750 5747
5838 5836 5834 5832 5829 5827 5825 5823 5820 5818 5816 5813 5810 5807 5804 5801 5798 5795 5792 5789 5786 5783 5780 5777 5773 5770 5767 5764 5761 5758 5755 5752 5749 5746 5744 5741 5738 5736
5834 5832 5829 5827 5825 5822 5820 5818 5815 5812 5809 5806 5803 5800 5797 5794 5791 5787 5784 5781 5777 5774 5770 5767 5763 5760 5756 5753 5750 5747 5744 5741 5738 5735 5732 5729 5727 5724
5830 5828 5825 5822 5820 5817 5815 5812 5809 5806 5803 5800 5796 5793 5790 5786 5783 5780 5776 5772 5769 5765 5761 5758 5753 5750 5746 5743 5739 5736 5733 5730 5727 5724 5721 5718 5715 5712
5826 5823 5821 5818 5815 5812 5809 5806 5803 5799 5796 5793 5789 5786 5782 5779 5775 5771 5768 5764 5760 5756 5752 5748 5744 5740 5737 5733 5729 5726 5722 5719 5716 5713 5710 5707 5704 5701
5821 5818 5815 5812 5809 5806 5803 5800 5796 5793 5789 5786 5782 5778 5775 5771 5767 5763 5759 5755 5751 5747 5743 5739 5735 5731 5727 5723 5719 5715 5712 5708 5705 5701 5698 5695 5692 5689
5815 5813 5810 5806 5803 5800 5796 5793 5789 5785 5782 5778 5774 5770 5766 5762 5758 5754 5750 5745 5741 5737 5733 5729 5725 5720 5716 5712 5708 5705 5701 5697 5694 5690 5687 5684 5681 5678
5809 5806 5803 5800 5797 5793 5789 5786 5782 5778 5774 5770 5766 5762 5758 5753 5749 5745 5740 5736 5731 5727 5723 5718 5714 5710 5706 5701 5698 5694 5690 5686 5683 5679 5676 5673 5669 5666
5803 5800 5797 5793 5790 5786 5783 5779 5775 5771 5767 5762 5758 5753 5749 5744 5740 5735 5731 5726 5722 5717 5713 5708 5704 5699 5695 5691 5687 5683 5679 5676 5672 5669 5666 5662 5659 5656
5796 5793 5790 5786 5783 5779 5775 5771 5767 5763 5758 5754 5749 5745 5740 5735 5731 5726 5722 5717 5712 5708 5703 5699 5694 5690 5685 5681 5678 5673 5669 5666 5662 5659 5656 5652 5649 5646
5790 5786 5783 5779 5776 5771 5767 5763 5759 5755 5750 5746 5741 5736 5731 5727 5722 5717 5713 5708 5703 5699 5694 5690 5685 5681 5677 5672 5668 5664 5660 5657 5653 5650 5646 5643 5640 5637
5783 5779 5776 5772 5768 5764 5760 5755 5751 5746 5742 5737 5733 5728 5723 5718 5713 5709 5704 5699 5695 5690 5686 5681 5677 5673 5669 5665 5660 5656 5652 5649 5645 5642 5638 5635 5632 5629
5776 5772 5768 5764 5760 5756 5752 5747 5743 5738 5734 5729 5724 5719 5715 5710 5705 5701 5696 5691 5687 5682 5678 5674 5669 5665 5661 5656 5653 5648 5645 5641 5638 5635 5631 5628 5625 5622
5768 5765 5761 5757 5752 5748 5744 5739 5735 5730 5725 5721 5716 5711 5707 5702 5697 5693 5688 5684 5679 5675 5670 5666 5662 5658 5653 5649 5645 5642 5638 5635 5631 5628 5625 5622 5619 5616
5761 5757 5753 5748 5744 5740 5735 5731 5726 5722 5717 5713 5708 5703 5699 5694 5690 5685 5680 5676 5672 5667 5663 5659 5655 5650 5646 5643 5639 5635 5632 5628 5625 5622 5619 5616 5613 5610